This is the latest recevied weather packets stored in our database for station/object WX7EM. If no packets are shown the sender has not sent any weather packets the latest 10 day(s).
| Time | Temp. | Humidity | Pressure | Rain* | Wind** | Luminosity | Snow |
|---|---|---|---|---|---|---|---|
| 1778214141 | 15° C | 80% | 1015.8 hPa | 0 mm | - | 0 W/m² | - |
| 1778213837 | 15° C | 79% | 1015.9 hPa | 0 mm | - | 0 W/m² | - |
| 1778213535 | 15.56° C | 78% | 1016.1 hPa | 0 mm | - | 0 W/m² | - |
| 1778213231 | 15.56° C | 78% | 1015.7 hPa | 0 mm | - | 0 W/m² | - |
| 1778212928 | 15.56° C | 78% | 1015.5 hPa | 0 mm | - | 0 W/m² | - |
| 1778212625 | 15.56° C | 77% | 1015.4 hPa | 0 mm | - | 0 W/m² | - |
| 1778212323 | 15.56° C | 76% | 1015.6 hPa | 0 mm | - | 0 W/m² | - |
| 1778212019 | 16.11° C | 76% | 1015.4 hPa | 0 mm | - | 0 W/m² | - |
| 1778211716 | 16.67° C | 74% | 1015.4 hPa | 0 mm | - | 0 W/m² | - |
| 1778211413 | 16.67° C | 74% | 1015.1 hPa | 0 mm | - | 1 W/m² | - |
| 1778211112 | 16.67° C | 74% | 1015.2 hPa | 0 mm | - | 1 W/m² | - |
| 1778210808 | 17.22° C | 71% | 1015.3 hPa | 0 mm | - | 2 W/m² | - |
| 1778210506 | 17.22° C | 71% | 1015.2 hPa | 0 mm | - | 3 W/m² | - |
| 1778210203 | 17.78° C | 69% | 1015.1 hPa | 0 mm | - | 5 W/m² | - |
| 1778209899 | 17.78° C | 68% | 1014.9 hPa | 0 mm | - | 6 W/m² | - |
| 1778209595 | 18.33° C | 68% | 1015.1 hPa | 0 mm | - | 9 W/m² | - |
| 1778209293 | 18.33° C | 67% | 1015 hPa | 0 mm | - | 11 W/m² | - |
| 1778208989 | 18.89° C | 66% | 1015 hPa | 0 mm | - | 14 W/m² | - |
| 1778208687 | 19.44° C | 64% | 1015 hPa | 0 mm | - | 18 W/m² | - |
| 1778208382 | 20° C | 61% | 1015.1 hPa | 0 mm | - | 26 W/m² | - |
| 1778208080 | 20° C | 61% | 1015 hPa | 0 mm | - | 33 W/m² | - |
| 1778207776 | 20° C | 61% | 1014.9 hPa | 0 mm | - | 29 W/m² | - |
| 1778207474 | 20° C | 58% | 1014.9 hPa | 0 mm | - | 32 W/m² | - |
| 1778207169 | 20.56° C | 56% | 1015.2 hPa | 0 mm | - | 38 W/m² | - |
| 1778206867 | 21.11° C | 53% | 1015 hPa | 0 mm | - | 56 W/m² | - |
* Rain latest hour (hover to see other rain measurements)
** Current wind speed in m/s (hover to see current wind gust speed)